SL-25 R/B (49045 NORAD) Tracking and Keplerian Element Data

This shows tracking and keplerian element data for the satellite.

Feedback or suggestion? Click here.




ElementValue
Catalog49045
NameSL-25 R/B
Epoch Orbit246
Epoch Day217.87514587
Epoch Year2021
RAAN90.4835
Inclination51.5927
Eccentricity0.000841
Argument of Perigee162.8044
Mean Anonmoly197.5838
Mean Motion16.45503288
Decay Rate0.07003992
L11 49045U 21066B 21217.87514587 .07003992 12422-4 17160-3 0 9998
L22 49045 51.5927 90.4835 0008410 162.8044 197.5838 16.45503288 2465

Live tracking and technical data element details for SL-25 R/B (NORAD 49045). SL-25 R/B can be tracked NOW for your location showing map with azimuth and elevation plus other details from your city location.

Track the satellite on the map from your city or location and see movement details for azimuth, elevation, latitude, longitude, range, height, and movement on the map or in text.







IsCatalogInMostPopularTable: catalog: 49045, numindb: 14
Update: records affected: 1



GetName: 49045 SL-25 R/B

Hit Count: updated at: Fri, 24 Sep 2021 17:31:11 GMT